Weather History for KGBD - December, 2013

Change the Weather History Date:

Friday, December 20, 2013

  Actual Average Record
Temperature  
Mean Temperature 20 °F -  
Max Temperature 24 °F 40 °F 66 °F (1966)
Min Temperature 15 °F 20 °F -10 °F (1983)
Degree Days  
Heating Degree Days 46    
Moisture  
Dew Point 9 °F    
Average Humidity 63    
Maximum Humidity 74    
Minimum Humidity 50    
Precipitation  
Precipitation 0.00 in - - ()
Sea Level Pressure  
Sea Level Pressure 29.91 in    
Wind  
Wind Speed 15 mph (North)    
Max Wind Speed 23 mph    
Max Gust Speed 32 mph    
Visibility 10 miles    
Events      
Averages and records for this station are not official NWS values.
T = Trace of Precipitation, MM = Missing Value Source: NWS Daily Summary

Daily Weather History Graph

Daily Weather History Graph

Search for Another Location

Airport or City:

Trip Planner

Search our weather history database for the weather conditions in past years. The results will help you decide how hot, cold, wet, or windy it might be!

Date:

Astronomy

Dec. 20, 2013 Rise Set
Actual Time 7:48 AM CST 5:18 PM CST
Civil Twilight 7:18 AM CST 5:47 PM CST
Nautical Twilight 6:45 AM CST 6:21 PM CST
Astronomical Twilight 6:13 AM CST 6:53 PM CST
Moon 8:37 PM CST (12/20) 9:45 AM CST (12/20)
Length of Visible Light 10h 29m
Length of Day
9h 29m
Waning Gibbous, 90% of the Moon is Illuminated
Dec 20
Waning Gibbous
Dec 25
Last Quarter
Jan 1
New
Jan 7
First Quarter
Jan 15
Full

Hourly Weather History & Observations

Time (CST) Temp. Windchill Dew Point Humidity Pressure Visibility Wind Dir Wind Speed Gust Speed Precip Events Conditions
12:15 AM 19.4 °F 2.8 °F 12.2 °F 74% 29.83 in 10.0 mi North 21.9 mph 29.9 mph N/A   Overcast
12:35 AM 19.4 °F 3.6 °F 12.2 °F 74% 29.83 in 9.0 mi North 19.6 mph 31.1 mph N/A   Overcast
12:55 AM 19.4 °F 2.5 °F 12.2 °F 74% 29.85 in 10.0 mi NNW 23.0 mph 28.8 mph N/A   Overcast
1:15 AM 17.6 °F 0.5 °F 10.4 °F 73% 29.86 in 10.0 mi North 21.9 mph - N/A   Overcast
1:35 AM 17.6 °F 0.1 °F 10.4 °F 73% 29.87 in 10.0 mi North 23.0 mph 29.9 mph N/A   Overcast
1:55 AM 17.6 °F 0.1 °F 8.6 °F 68% 29.89 in 10.0 mi NNW 23.0 mph 28.8 mph N/A   Overcast
2:15 AM 17.6 °F 0.5 °F 8.6 °F 68% 29.91 in 10.0 mi NNW 21.9 mph 28.8 mph N/A   Overcast
2:35 AM 15.8 °F -1.5 °F 6.8 °F 68% 29.91 in 10.0 mi North 20.7 mph 32.2 mph N/A   Overcast
2:55 AM 15.8 °F -2.3 °F 6.8 °F 68% 29.92 in 10.0 mi NNW 23.0 mph 27.6 mph N/A   Overcast
3:15 AM 15.8 °F -0.6 °F 6.8 °F 68% 29.92 in 10.0 mi North 18.4 mph - N/A   Overcast
3:35 AM 15.8 °F -1.1 °F 6.8 °F 68% 29.93 in 10.0 mi NNW 19.6 mph 25.3 mph N/A   Overcast
3:55 AM 15.8 °F -0.2 °F 6.8 °F 68% 29.93 in 10.0 mi NNW 17.3 mph 23.0 mph N/A   Overcast
4:15 AM 15.8 °F 0.3 °F 6.8 °F 68% 29.94 in 10.0 mi NNW 16.1 mph 24.2 mph N/A   Overcast
4:35 AM 15.8 °F -0.2 °F 6.8 °F 68% 29.94 in 10.0 mi NNW 17.3 mph 23.0 mph N/A   Overcast
4:55 AM 15.8 °F -1.5 °F 6.8 °F 68% 29.94 in 10.0 mi North 20.7 mph 25.3 mph N/A   Overcast
5:15 AM 15.8 °F -0.2 °F 6.8 °F 68% 29.94 in 9.0 mi NNW 17.3 mph 23.0 mph N/A   Overcast
5:35 AM 15.8 °F -0.6 °F 6.8 °F 68% 29.95 in 10.0 mi NNW 18.4 mph 24.2 mph N/A   Overcast
5:55 AM 15.8 °F -1.5 °F 6.8 °F 68% 29.95 in 10.0 mi NNW 20.7 mph 25.3 mph N/A   Overcast
6:15 AM 15.8 °F -0.2 °F 6.8 °F 68% 29.96 in 10.0 mi NNW 17.3 mph 26.5 mph N/A   Overcast
6:35 AM 15.8 °F -1.5 °F 6.8 °F 68% 29.95 in 10.0 mi North 20.7 mph 26.5 mph N/A   Overcast
6:55 AM 15.8 °F -0.2 °F 8.6 °F 73% 29.95 in 10.0 mi North 17.3 mph 21.9 mph N/A   Overcast
7:15 AM 15.8 °F 2.7 °F 8.6 °F 73% 29.96 in 10.0 mi North 11.5 mph - N/A   Overcast
7:35 AM 15.8 °F -0.6 °F 6.8 °F 68% 29.97 in 10.0 mi North 18.4 mph 25.3 mph N/A   Overcast
7:55 AM 15.8 °F -0.2 °F 6.8 °F 68% 29.96 in 10.0 mi North 17.3 mph - N/A   Overcast
8:15 AM 15.8 °F 0.3 °F 6.8 °F 68% 29.96 in 10.0 mi North 16.1 mph - N/A   Overcast
8:35 AM 15.8 °F -0.6 °F 6.8 °F 68% 29.97 in 10.0 mi North 18.4 mph - N/A   Overcast
8:55 AM 15.8 °F 0.9 °F 6.8 °F 68% 29.97 in 10.0 mi North 15.0 mph - N/A   Overcast
9:15 AM 17.6 °F 3.7 °F 6.8 °F 63% 29.97 in 10.0 mi North 13.8 mph 20.7 mph N/A   Overcast
9:35 AM 17.6 °F 5.0 °F 8.6 °F 68% 29.98 in 10.0 mi North 11.5 mph - N/A   Overcast
9:55 AM 17.6 °F 5.7 °F 6.8 °F 63% 29.99 in 10.0 mi North 10.4 mph - N/A   Overcast
10:15 AM 17.6 °F 5.0 °F 8.6 °F 68% 30.00 in 10.0 mi North 11.5 mph - N/A   Overcast
10:35 AM 17.6 °F 5.7 °F 8.6 °F 68% 29.99 in 10.0 mi NNW 10.4 mph - N/A   Overcast
10:55 AM 17.6 °F 5.7 °F 8.6 °F 68% 29.98 in 10.0 mi NNW 10.4 mph - N/A   Overcast
11:15 AM 19.4 °F 8.6 °F 8.6 °F 63% 29.98 in 10.0 mi North 9.2 mph - N/A   Overcast
11:35 AM 19.4 °F 8.6 °F 8.6 °F 63% 29.97 in 10.0 mi NNW 9.2 mph - N/A   Overcast
11:55 AM 19.4 °F 9.5 °F 8.6 °F 63% 29.96 in 10.0 mi NNW 8.1 mph - N/A   Overcast
12:15 PM 19.4 °F 10.4 °F 8.6 °F 63% 29.95 in 10.0 mi NNW 6.9 mph - N/A   Overcast
12:35 PM 21.2 °F 10.1 °F 8.6 °F 58% 29.94 in 10.0 mi NNW 10.4 mph - N/A   Overcast
12:55 PM 21.2 °F 12.6 °F 8.6 °F 58% 29.93 in 10.0 mi NNW 6.9 mph - N/A   Overcast
1:15 PM 21.2 °F 12.6 °F 8.6 °F 58% 29.94 in 10.0 mi WNW 6.9 mph - N/A   Overcast
1:35 PM 21.2 °F 10.1 °F 8.6 °F 58% 29.92 in 10.0 mi NW 10.4 mph - N/A   Overcast
1:55 PM 23.0 °F 12.4 °F 8.6 °F 54% 29.90 in 10.0 mi NW 10.4 mph - N/A   Overcast
2:15 PM 24.8 °F 12.9 °F 10.4 °F 54% 29.87 in 10.0 mi NNW 13.8 mph 17.3 mph N/A   Overcast
2:35 PM 24.8 °F 16.1 °F 10.4 °F 54% 29.88 in 10.0 mi NNW 8.1 mph - N/A   Overcast
2:55 PM 24.8 °F 16.1 °F 10.4 °F 54% 29.88 in 10.0 mi NW 8.1 mph - N/A   Overcast
3:15 PM 24.8 °F 17.9 °F 10.4 °F 54% 29.90 in 10.0 mi NW 5.8 mph - N/A   Overcast
3:35 PM 24.8 °F 16.9 °F 10.4 °F 54% 29.90 in 10.0 mi NNW 6.9 mph - N/A   Overcast
3:55 PM 24.8 °F 19.1 °F 10.4 °F 54% 29.90 in 10.0 mi NW 4.6 mph - N/A   Overcast
4:15 PM 24.8 °F 19.1 °F 10.4 °F 54% 29.90 in 10.0 mi NNW 4.6 mph - N/A   Overcast
4:35 PM 24.8 °F 16.9 °F 8.6 °F 50% 29.88 in 10.0 mi NNW 6.9 mph - N/A   Overcast
4:55 PM 24.8 °F 19.1 °F 8.6 °F 50% 29.88 in 10.0 mi NNW 4.6 mph - N/A   Overcast
5:15 PM 24.8 °F 19.1 °F 8.6 °F 50% 29.88 in 10.0 mi North 4.6 mph - N/A   Overcast
5:35 PM 23.0 °F 14.7 °F 8.6 °F 54% 29.86 in 10.0 mi North 6.9 mph - N/A   Mostly Cloudy
5:55 PM 23.0 °F 14.7 °F 8.6 °F 54% 29.84 in 10.0 mi North 6.9 mph - N/A   Clear
6:15 PM 23.0 °F 17.0 °F 8.6 °F 54% 29.84 in 10.0 mi NNE 4.6 mph - N/A   Clear
6:35 PM 23.0 °F 15.8 °F 10.4 °F 59% 29.84 in 10.0 mi NNE 5.8 mph - N/A   Clear
6:55 PM 23.0 °F 18.4 °F 8.6 °F 54% 29.86 in 10.0 mi NNE 3.5 mph - N/A   Mostly Cloudy
7:15 PM 23.0 °F 15.8 °F 8.6 °F 54% 29.84 in 10.0 mi NNE 5.8 mph - N/A   Scattered Clouds
7:35 PM 23.0 °F 15.8 °F 10.4 °F 59% 29.83 in 10.0 mi NNE 5.8 mph - N/A   Partly Cloudy
7:55 PM 23.0 °F 15.8 °F 8.6 °F 54% 29.86 in 10.0 mi NNE 5.8 mph - N/A   Mostly Cloudy
8:15 PM 23.0 °F 15.8 °F 8.6 °F 54% 29.85 in 10.0 mi NE 5.8 mph - N/A   Overcast
8:35 PM 23.0 °F 18.4 °F 8.6 °F 54% 29.88 in 10.0 mi NE 3.5 mph - N/A   Partly Cloudy
8:55 PM 23.0 °F 18.4 °F 8.6 °F 54% 29.87 in 10.0 mi ENE 3.5 mph - N/A   Partly Cloudy
9:15 PM 21.2 °F - 10.4 °F 63% 29.88 in 10.0 mi Calm Calm - N/A   Clear
9:35 PM 23.0 °F - 10.4 °F 59% 29.87 in 10.0 mi Calm Calm - N/A   Clear
9:55 PM 21.2 °F - 10.4 °F 63% 29.87 in 10.0 mi Calm Calm - N/A   Clear
10:15 PM 21.2 °F - 10.4 °F 63% 29.87 in 10.0 mi Calm Calm - N/A   Clear
10:35 PM 21.2 °F 16.4 °F 10.4 °F 63% 29.87 in 10.0 mi ESE 3.5 mph - N/A   Clear
10:55 PM 21.2 °F 16.4 °F 10.4 °F 63% 29.85 in 10.0 mi ESE 3.5 mph - N/A   Clear
11:15 PM 21.2 °F - 10.4 °F 63% 29.86 in 10.0 mi Calm Calm - N/A   Clear
11:35 PM 21.2 °F 14.9 °F 12.2 °F 68% 29.87 in 10.0 mi SSE 4.6 mph - N/A   Clear
11:55 PM 21.2 °F 14.9 °F 10.4 °F 63% 29.86 in 10.0 mi SSE 4.6 mph - N/A   Clear